Wind_Speed
26 27 26 23 22 22 22 20 19 19 20 22 22 22 21 21 21 21 22 22 22 22 22 21 21 21 21 20 20 20 20 19 19 18 18 19 19 18 18 18 18 18
29 29 28 25 23 23 22 21 19 19 21 23 24 24 24 23 22 22 22 22 22 21 22 21 21 21 21 20 20 20 20 19 19 18 18 19 20 20 19 19 19 19
32 32 31 27 25 24 22 21 20 20 21 24 26 26 25 24 23 22 22 22 22 21 21 21 21 21 21 20 20 20 20 19 18 19 20 21 21 21 21 20 20 20
34 34 33 28 27 26 23 23 22 21 21 25 27 27 27 25 23 22 22 22 21 21 21 21 21 21 21 20 20 20 20 19 18 19 20 21 21 22 21 20 20 21
34 36 35 30 28 27 25 24 24 22 22 25 27 28 27 25 23 23 22 21 21 20 21 21 21 21 21 20 20 20 20 19 18 18 20 21 22 22 21 21 21 21
35 36 37 33 30 29 27 26 26 24 24 25 28 29 28 26 24 23 22 22 21 20 21 21 22 21 21 20 20 20 19 18 18 19 20 21 22 22 22 22 22 22
34 36 37 35 33 32 29 28 27 27 25 25 28 29 29 27 25 24 23 22 21 21 21 22 21 21 21 21 20 20 19 19 18 19 21 22 22 22 23 23 22 23
35 36 37 36 35 34 32 30 29 29 27 26 27 29 30 29 26 25 24 23 22 21 22 22 21 21 21 21 20 20 20 19 19 20 21 22 23 23 23 24 24 24
37 36 36 36 37 36 34 32 31 30 29 28 28 29 31 30 28 27 25 24 22 22 23 22 22 21 21 21 20 20 20 20 20 20 21 22 23 24 24 25 25 25
38 37 35 35 36 36 35 34 33 32 31 30 29 29 30 31 30 28 26 25 23 23 23 23 22 21 21 21 21 21 21 21 21 21 21 22 23 24 24 25 26 26
40 39 36 35 35 35 36 35 34 34 33 32 30 29 30 31 31 30 28 26 24 23 24 23 23 22 22 22 22 21 21 21 22 22 22 23 23 24 25 25 26 27
41 41 37 35 35 35 35 36 36 35 34 33 32 30 30 32 32 31 29 26 24 24 24 24 24 24 23 23 22 22 22 22 22 23 23 24 24 24 25 26 27 27
40 41 38 36 36 35 36 37 36 36 35 35 33 31 31 32 33 32 29 26 25 25 25 25 25 25 25 24 23 23 22 22 23 24 24 25 25 25 25 26 26 27
40 42 40 37 35 36 36 36 36 36 36 36 35 33 32 33 34 33 30 27 26 25 26 26 26 26 26 24 23 23 23 23 23 24 25 25 25 25 25 25 26 26
42 44 42 37 35 36 35 34 35 36 36 37 36 34 33 33 34 34 31 29 27 26 26 27 27 27 26 24 23 23 23 24 24 25 26 26 26 26 25 25 26 26
45 44 41 37 34 34 34 34 34 36 37 38 38 35 33 33 35 35 33 30 28 27 26 27 27 27 25 24 24 24 24 25 25 26 26 26 26 26 25 25 26 25
44 41 38 35 33 33 34 34 35 36 38 39 38 36 34 34 35 36 34 32 29 28 26 26 27 27 25 25 25 25 25 25 26 26 26 26 26 26 26 25 26 26
40 37 35 33 32 33 34 35 36 37 38 40 38 35 34 34 36 37 36 33 30 29 27 27 28 27 26 26 27 26 26 26 26 27 27 27 27 27 26 26 26 26
38 35 32 30 30 33 35 36 37 37 38 40 38 35 34 35 36 38 36 34 32 29 27 28 28 27 27 28 28 27 27 27 27 27 27 28 28 27 26 26 26 26
38 34 31 29 31 34 36 37 37 37 38 39 37 35 34 35 37 38 36 34 32 30 29 29 28 27 28 28 28 28 28 28 28 28 28 29 28 28 27 27 26 26
38 34 31 31 33 35 37 37 36 37 39 39 36 34 34 36 38 38 36 35 34 31 30 29 28 27 29 29 28 29 29 29 29 29 29 30 29 28 28 28 27 27
38 35 33 34 35 36 37 36 36 38 39 37 35 34 35 36 37 37 35 35 34 33 32 30 28 28 30 30 29 29 30 31 30 30 30 30 29 29 29 29 28 27
38 36 35 36 36 35 36 36 37 38 36 34 34 35 35 36 36 35 35 35 35 34 33 31 29 29 30 30 30 30 32 32 32 31 31 30 30 30 30 30 30 28
39 38 37 37 35 34 34 35 35 35 33 33 34 34 34 35 35 35 35 36 36 35 34 32 31 30 30 30 30 31 33 33 33 32 32 31 31 31 31 30 30 30
38 38 38 36 33 32 32 32 31 31 32 32 33 33 34 34 35 36 36 36 36 35 34 34 33 32 31 31 32 33 33 34 34 33 33 32 31 32 31 31 31 31
39 38 36 34 31 31 30 30 30 31 32 33 33 33 34 35 36 37 37 37 36 35 35 35 35 34 33 34 34 34 34 34 35 34 33 33 32 31 31 31 32 32
Wind_Direction
236 237 236 232 228 226 227 231 235 242 243 241 241 242 242 243 243 245 248 250 254 259 262 262 262 265 268 269 268 267 267 264 262 260 253 244 240 241 244 248 251 253
239 241 240 237 234 232 230 231 236 242 242 239 240 240 240 242 244 247 250 254 257 259 261 260 261 265 268 269 269 268 267 264 261 257 250 242 239 241 246 249 252 254
240 242 242 242 241 238 234 233 236 242 242 238 238 240 241 242 244 247 251 254 257 258 258 259 260 264 267 268 267 267 266 264 259 251 242 239 239 241 245 249 252 253
239 242 243 242 243 241 237 236 238 242 243 240 240 241 242 243 244 247 251 254 257 257 256 257 259 263 266 268 267 267 266 262 256 247 239 238 240 243 246 250 252 253
235 239 242 242 244 245 242 239 239 241 244 245 243 243 243 243 244 248 251 253 255 254 254 256 257 261 265 267 269 268 267 263 256 246 240 240 243 246 249 252 255 256
231 236 240 241 244 247 246 243 240 241 246 247 245 244 243 241 242 246 249 251 253 252 252 255 257 260 264 267 270 270 268 265 257 247 242 242 245 249 252 255 258 259
230 234 238 240 243 248 249 245 241 242 245 248 247 245 243 239 240 244 248 250 252 252 252 255 258 261 264 267 270 270 267 263 257 248 244 244 248 251 254 257 259 260
231 234 237 239 242 248 250 247 244 243 245 250 250 248 244 239 238 242 247 249 251 253 254 256 259 261 265 268 270 269 267 262 256 250 246 247 250 253 255 257 259 261
232 236 238 240 242 246 249 249 247 244 246 251 252 250 246 241 239 241 245 248 251 253 255 257 260 263 266 268 269 268 265 261 256 252 250 249 251 253 256 258 259 262
233 238 240 242 243 246 249 250 248 245 246 249 251 251 249 245 241 241 244 248 251 253 255 258 261 264 266 267 268 267 264 260 257 254 252 251 252 254 257 259 261 263
237 242 243 244 246 246 247 249 248 246 245 247 250 252 253 249 243 242 244 247 251 253 254 257 260 262 264 265 267 266 263 260 257 255 254 253 254 256 258 261 263 264
239 244 244 245 247 247 247 247 247 246 245 246 250 253 254 252 246 242 244 246 249 251 253 255 258 261 263 264 266 265 263 261 257 255 255 255 255 257 260 262 264 265
239 243 245 245 246 245 246 246 245 245 245 246 250 253 254 252 247 242 243 245 247 250 252 254 257 259 261 263 264 265 263 261 257 255 254 255 256 258 261 263 264 265
239 243 246 246 244 243 244 244 242 243 244 245 248 251 253 252 246 242 241 243 246 249 252 254 256 257 259 261 263 264 264 261 258 255 254 254 256 259 263 265 266 267
237 241 246 246 242 240 242 242 240 240 241 242 245 249 252 251 246 241 240 242 245 249 252 254 257 257 258 260 262 264 263 261 258 255 254 254 256 260 264 266 268 269
237 240 244 244 239 238 239 239 238 238 238 240 243 247 250 251 245 240 239 241 244 248 252 256 258 258 258 258 260 261 261 260 258 256 255 254 256 260 263 266 267 267
236 239 241 240 237 236 237 236 236 235 235 237 241 245 249 250 245 239 239 241 244 248 253 257 259 258 257 255 256 259 259 259 258 256 255 255 256 259 261 264 265 263
234 238 238 236 236 235 233 233 233 232 231 234 239 243 247 248 243 238 238 240 243 247 253 257 258 257 255 254 255 257 259 259 258 256 255 255 255 257 260 262 262 262
234 237 235 234 236 235 232 230 230 228 229 233 237 242 246 247 242 238 238 240 242 247 252 255 257 257 255 255 255 257 259 259 258 256 256 255 255 256 258 260 261 261
234 234 236 238 239 236 231 227 226 226 226 230 235 240 245 245 240 237 238 240 242 246 250 253 255 256 256 257 257 256 258 259 258 256 256 255 255 256 257 258 260 260
234 235 239 241 238 234 228 224 222 222 224 228 234 240 245 243 239 237 238 240 242 244 248 251 254 256 256 258 258 257 257 259 259 257 256 256 256 256 257 257 258 259
235 238 240 239 236 231 226 221 219 221 223 227 233 240 243 240 237 236 238 241 242 243 246 250 252 254 256 258 259 258 257 258 259 258 257 256 257 257 257 257 257 259
237 240 241 238 233 228 224 220 218 219 222 227 234 240 241 238 236 237 239 240 240 242 245 247 250 252 255 258 259 258 257 257 257 258 257 256 256 257 257 257 257 259
239 242 241 236 230 228 225 220 218 219 223 230 236 239 238 236 236 238 240 240 241 242 245 246 248 250 253 257 258 257 257 257 257 257 257 256 256 256 257 257 258 259
242 241 237 233 231 229 224 220 220 223 227 231 234 236 236 235 236 238 240 241 241 243 245 246 247 248 251 254 255 256 257 257 256 256 257 256 255 256 257 258 258 259
240 236 231 229 227 224 222 224 226 226 226 228 229 231 232 234 235 237 240 242 243 243 244 244 245 246 249 252 253 254 255 255 255 256 257 256 256 256 258 259 258 258
Height
3142 3143 3144 3145 3146 3146 3147 3147 3148 3148 3149 3149 3150 3150 3151 3151 3152 3152 3152 3153 3154 3154 3155 3155 3156 3156 3157 3157 3157 3157 3158 3158 3157 3157 3158 3158 3159 3160 3160 3161 3161 3162
3139 3140 3142 3143 3144 3144 3145 3145 3146 3146 3146 3147 3147 3148 3148 3148 3149 3150 3150 3151 3152 3152 3153 3153 3154 3154 3154 3155 3155 3155 3155 3155 3155 3155 3156 3156 3157 3158 3159 3159 3160 3160
3136 3137 3139 3141 3142 3142 3143 3144 3144 3144 3144 3145 3145 3145 3146 3146 3147 3147 3148 3149 3149 3150 3150 3151 3151 3152 3152 3152 3153 3153 3153 3153 3153 3153 3154 3155 3156 3156 3157 3157 3158 3158
3132 3134 3136 3138 3139 3140 3141 3141 3142 3142 3142 3142 3142 3143 3143 3144 3144 3145 3146 3146 3147 3147 3148 3148 3149 3149 3150 3150 3150 3150 3150 3150 3151 3151 3152 3153 3153 3154 3155 3155 3156 3156
3128 3130 3132 3135 3136 3137 3138 3139 3139 3139 3140 3140 3140 3140 3140 3141 3142 3143 3143 3144 3144 3145 3145 3146 3146 3147 3147 3147 3147 3147 3147 3148 3148 3148 3149 3150 3151 3152 3152 3153 3153 3154
3124 3126 3128 3131 3132 3134 3135 3136 3137 3137 3137 3138 3138 3138 3138 3139 3139 3140 3141 3142 3142 3143 3143 3143 3144 3144 3145 3145 3145 3145 3145 3145 3145 3146 3147 3147 3148 3149 3150 3150 3151 3151
3120 3122 3125 3127 3129 3130 3132 3133 3134 3134 3134 3135 3135 3135 3135 3136 3137 3137 3138 3139 3140 3140 3140 3141 3141 3142 3142 3143 3143 3143 3143 3143 3143 3144 3144 3145 3146 3147 3148 3148 3149 3149
3117 3119 3121 3123 3125 3126 3128 3130 3131 3131 3132 3132 3133 3133 3133 3133 3134 3135 3135 3136 3137 3138 3138 3138 3139 3139 3140 3140 3140 3141 3140 3141 3141 3142 3143 3143 3144 3145 3145 3146 3146 3146
3112 3115 3117 3119 3121 3123 3125 3127 3128 3128 3129 3129 3130 3130 3130 3131 3131 3132 3133 3134 3135 3135 3135 3136 3136 3137 3137 3138 3138 3138 3138 3139 3139 3140 3141 3141 3142 3143 3143 3143 3144 3144
3108 3111 3114 3116 3117 3119 3121 3123 3124 3125 3126 3126 3127 3127 3128 3128 3128 3129 3130 3131 3132 3132 3133 3133 3134 3134 3135 3135 3135 3136 3136 3136 3137 3138 3138 3139 3140 3140 3140 3141 3141 3141
3105 3107 3110 3112 3114 3115 3117 3119 3120 3121 3122 3123 3123 3124 3125 3125 3126 3126 3127 3128 3129 3130 3130 3130 3131 3132 3132 3132 3133 3133 3133 3134 3135 3135 3136 3137 3137 3137 3138 3138 3138 3138
3101 3103 3106 3109 3110 3111 3113 3115 3116 3117 3118 3119 3120 3121 3121 3122 3122 3123 3124 3125 3126 3127 3127 3128 3128 3129 3129 3130 3130 3130 3131 3131 3132 3133 3133 3134 3134 3135 3135 3135 3135 3136
3098 3099 3102 3104 3105 3107 3108 3110 3112 3113 3114 3116 3117 3117 3118 3118 3119 3120 3121 3123 3123 3124 3124 3125 3125 3126 3126 3127 3127 3128 3128 3129 3129 3130 3130 3131 3132 3132 3132 3132 3132 3132
3095 3095 3097 3099 3101 3102 3103 3105 3107 3109 3110 3112 3113 3113 3114 3115 3116 3117 3119 3119 3120 3120 3121 3122 3122 3123 3123 3124 3124 3125 3125 3126 3127 3127 3127 3128 3129 3129 3129 3129 3129 3129
3090 3091 3093 3095 3096 3097 3099 3101 3103 3105 3106 3108 3108 3109 3110 3111 3113 3114 3115 3116 3117 3117 3118 3119 3119 3120 3120 3121 3122 3122 3123 3123 3124 3124 3124 3125 3126 3126 3126 3126 3126 3127
3085 3087 3089 3090 3091 3093 3095 3097 3099 3100 3102 3103 3104 3105 3107 3108 3109 3111 3111 3112 3113 3114 3115 3115 3116 3117 3117 3118 3119 3119 3120 3120 3120 3121 3121 3122 3123 3123 3123 3123 3123 3124
3081 3083 3084 3085 3087 3089 3091 3092 3094 3095 3097 3099 3100 3102 3103 3104 3105 3107 3108 3109 3110 3110 3111 3112 3113 3113 3114 3115 3115 3116 3116 3117 3117 3118 3118 3119 3120 3120 3120 3120 3120 3120
3077 3078 3079 3081 3083 3084 3086 3088 3089 3090 3092 3094 3096 3098 3099 3100 3101 3103 3104 3105 3106 3107 3108 3109 3109 3110 3111 3111 3112 3112 3113 3114 3114 3114 3115 3116 3116 3117 3117 3117 3117 3117
3072 3073 3075 3077 3078 3080 3081 3083 3084 3086 3088 3090 3092 3094 3095 3096 3098 3099 3100 3101 3103 3104 3105 3105 3106 3107 3107 3107 3108 3109 3110 3110 3111 3111 3112 3112 3113 3114 3114 3114 3114 3114
3067 3069 3071 3073 3074 3075 3076 3078 3080 3082 3084 3086 3088 3090 3091 3092 3093 3094 3096 3098 3099 3100 3101 3101 3102 3103 3104 3104 3105 3106 3106 3107 3107 3108 3108 3109 3110 3110 3111 3111 3111 3111
3063 3065 3066 3068 3069 3071 3072 3074 3076 3078 3080 3082 3084 3086 3087 3088 3089 3091 3092 3094 3095 3096 3096 3097 3099 3100 3100 3100 3101 3102 3102 3103 3104 3104 3105 3105 3106 3107 3107 3108 3108 3108
3058 3059 3061 3063 3065 3066 3068 3070 3072 3073 3076 3078 3081 3082 3083 3084 3085 3087 3088 3090 3090 3091 3092 3093 3095 3096 3096 3097 3098 3098 3099 3099 3100 3100 3101 3102 3103 3104 3104 3104 3104 3105
3053 3054 3056 3059 3060 3062 3064 3066 3067 3070 3072 3075 3077 3078 3079 3080 3081 3082 3084 3085 3086 3087 3088 3089 3091 3092 3092 3093 3094 3094 3094 3095 3095 3096 3097 3098 3100 3100 3100 3101 3101 3101
3049 3051 3053 3055 3057 3058 3060 3062 3064 3066 3069 3071 3073 3074 3075 3076 3077 3078 3079 3080 3081 3082 3084 3085 3087 3088 3088 3089 3089 3090 3090 3090 3091 3092 3093 3094 3096 3096 3096 3097 3098 3098
3046 3048 3050 3052 3053 3055 3057 3058 3061 3063 3065 3067 3068 3069 3070 3071 3072 3073 3074 3075 3076 3078 3079 3081 3082 3083 3084 3084 3085 3085 3086 3086 3087 3088 3089 3090 3091 3092 3093 3094 3094 3095
3042 3044 3046 3048 3050 3051 3053 3055 3057 3059 3060 3061 3062 3063 3065 3066 3067 3068 3069 3070 3071 3073 3074 3075 3077 3079 3079 3080 3081 3081 3082 3083 3083 3084 3085 3086 3087 3088 3089 3090 3090 3091